CW8386 Weather Reports


Display with metric or nautical units.
time (UTC)temp
F
wind
direction
speed
MPH
gust
MPH
rain 1hr
in
rain 24hr
in
rain mn
in
humidity
%
barometer
mb
20260506134558 37 360 0.0 0.0 0.01 0.05 0.01 64 1020.2
20260506134059 37 360 0.0 0.0 0.01 0.05 0.01 64 1020.2
20260506133601 36 360 0.0 0.0 0.01 0.05 0.01 65 1020.2
20260506133026 36 360 0.0 0.0 0.01 0.05 0.01 67 1020.3
20260506132528 35 360 0.0 0.0 0.01 0.05 0.01 69 1020.1
20260506132031 34 360 0.0 0.0 0.01 0.05 0.01 71 1020.1
20260506131034 32 360 0.0 0.0 0.00 0.04 0.00 75 1020.1
20260506130050 30 360 0.0 0.0 0.00 0.05 0.00 78 1020.0
20260506125536 29 360 0.0 0.0 0.00 0.05 0.00 79 1020.0
20260506125038 28 360 0.0 0.0 0.00 0.05 0.00 79 1019.8
20260506124601 27 360 0.0 0.0 0.00 0.05 0.00 79 1019.9
20260506124123 27 360 0.0 0.0 0.00 0.05 0.00 79 1019.8
20260506123523 26 360 0.0 5.0 0.00 0.05 0.00 78 1019.8
20260506123024 26 360 0.0 5.0 0.00 0.05 0.00 78 1019.7
20260506122527 26 360 4.0 5.0 0.00 0.05 0.00 78 1019.6
20260506122030 26 360 3.0 4.0 0.00 0.05 0.00 78 1019.6
20260506121533 26 360 4.0 4.0 0.00 0.05 0.00 78 1020.3
20260506121037 26 360 0.0 4.0 0.00 0.05 0.00 78 1020.2
20260506120535 26 360 1.0 4.0 0.00 0.05 0.00 78 1020.2
20260506120037 26 360 1.0 4.0 0.00 0.05 0.00 78 1020.2
20260506115539 26 360 3.0 4.0 0.00 0.05 0.00 78 1020.1
20260506115121 26 360 0.0 5.0 0.00 0.05 0.00 78 1020.1
20260506114622 26 360 1.0 6.0 0.00 0.05 0.00 78 1020.1
20260506114043 25 360 4.0 6.0 0.00 0.05 0.00 78 1020.0
20260506113526 25 360 2.0 6.0 0.00 0.05 0.00 77 1020.0
20260506113028 26 360 4.0 6.0 0.00 0.05 0.00 77 1020.0
20260506112535 26 360 5.0 6.0 0.00 0.05 0.00 77 1019.9
20260506112113 27 360 2.0 5.0 0.00 0.05 0.00 77 1019.8
20260506111554 27 360 0.0 0.0 0.00 0.05 0.00 77 1019.9
20260506111041 27 360 0.0 0.0 0.00 0.05 0.00 76 1019.9
20260506110542 27 360 0.0 3.0 0.00 0.06 0.00 76 1019.9
20260506110025 27 360 0.0 3.0 0.00 0.06 0.00 76 1019.9
20260506105527 27 360 0.0 5.0 0.00 0.06 0.00 76 1019.9
20260506105050 28 360 0.0 5.0 0.00 0.06 0.00 76 1019.9
20260506104532 28 360 0.0 3.0 0.00 0.06 0.00 74 1019.9
20260506104034 28 360 0.0 0.0 0.00 0.06 0.00 74 1019.9
20260506103616 29 360 0.0 0.0 0.00 0.06 0.00 74 1019.8
20260506103057 30 360 0.0 0.0 0.00 0.06 0.00 73 1019.8
20260506102539 31 360 0.0 0.0 0.00 0.06 0.00 73 1019.9
20260506102042 31 360 0.0 0.0 0.00 0.06 0.00 73 1019.8
20260506101524 32 360 0.0 0.0 0.00 0.06 0.00 73 1019.9
20260506101028 32 360 0.0 0.0 0.00 0.06 0.00 73 1019.7
20260506100529 31 360 0.0 0.0 0.00 0.07 0.00 74 1019.7
20260506100031 31 360 0.0 0.0 0.00 0.07 0.00 73 1019.7
20260506095614 31 360 0.0 0.0 0.00 0.07 0.00 73 1019.7
20260506094534 32 360 0.0 0.0 0.00 0.07 0.00 73 1019.6
20260506094058 32 360 0.0 0.0 0.00 0.07 0.00 73 1019.6
20260506093538 32 360 0.0 0.0 0.00 0.07 0.00 73 1019.6
20260506093120 31 360 0.0 0.0 0.00 0.07 0.00 73 1019.5
20260506092541 31 360 0.0 0.0 0.00 0.07 0.00 73 1019.6
20260506092028 31 360 0.0 0.0 0.00 0.07 0.00 73 1019.5
20260506091551 31 360 0.0 3.0 0.00 0.07 0.00 74 1019.5
20260506091033 30 360 1.0 5.0 0.00 0.07 0.00 74 1019.5
20260506090534 30 360 3.0 6.0 0.00 0.09 0.00 74 1019.4
20260506090036 30 360 3.0 6.0 0.00 0.09 0.00 73 1019.4
20260506085558 30 360 5.0 6.0 0.00 0.09 0.00 72 1019.4
20260506085100 30 360 4.0 6.0 0.00 0.09 0.00 72 1019.4
20260506084602 31 360 1.0 5.0 0.00 0.09 0.00 71 1019.4
20260506084104 31 360 4.0 5.0 0.00 0.09 0.00 70 1019.4
20260506083526 31 360 1.0 5.0 0.00 0.09 0.00 69 1019.4
20260506083028 32 360 0.0 4.0 0.00 0.09 0.00 67 1019.4
20260506082531 33 360 2.0 5.0 0.00 0.09 0.00 66 1019.4
20260506082054 33 360 1.0 5.0 0.00 0.09 0.00 65 1019.3
20260506081556 34 360 2.0 7.0 0.00 0.09 0.00 64 1019.3
20260506081059 34 360 5.0 7.0 0.00 0.09 0.00 64 1019.3
20260506080541 34 360 3.0 7.0 0.00 0.10 0.00 63 1019.3
20260506080124 34 360 0.0 1.0 0.00 0.10 0.00 63 1019.4
20260506073054 35 360 0.0 3.0 0.00 0.10 0.00 63 1019.1
20260506072535 35 360 0.0 3.0 0.00 0.10 0.00 62 1019.1
20260506072057 36 360 0.0 0.0 0.00 0.10 0.00 62 1019.3
20260506071539 36 360 0.0 0.0 0.00 0.10 0.00 61 1019.2
20260506071025 36 360 0.0 0.0 0.00 0.10 0.00 61 1019.2
20260506070548 36 360 0.0 0.0 0.00 0.11 0.00 61 1019.2
20260506062046 36 360 6.0 13.0 0.00 0.11 0.00 62 1018.7
20260506061527 36 360 7.0 13.0 0.00 0.11 0.00 62 1018.8
20260506061110 36 360 9.0 13.0 0.00 0.11 0.00 62 1019.5
20260506060531 36 360 5.0 13.0 0.00 0.11 0.11 62 1019.5
20260506051032 38 360 8.0 14.0 0.00 0.11 0.11 63 1018.9
20260506050533 38 360 5.0 13.0 0.00 0.11 0.11 63 1018.9
20260506045101 38 360 9.0 15.0 0.00 0.11 0.11 64 1019.0
20260506044603 38 360 8.0 16.0 0.00 0.11 0.11 64 1019.0
20260506044024 38 360 11.0 16.0 0.00 0.11 0.11 64 1019.0
20260506043529 38 360 11.0 16.0 0.00 0.11 0.11 64 1019.1
20260506043030 38 360 12.0 16.0 0.00 0.11 0.11 64 1019.1
20260506042553 39 360 9.0 15.0 0.00 0.11 0.11 64 1019.1
20260506042115 39 360 9.0 17.0 0.00 0.11 0.11 63 1019.0
20260506041536 39 360 11.0 17.0 0.00 0.11 0.11 63 1019.0
20260506040537 38 360 9.0 15.0 0.00 0.11 0.11 63 1018.9
20260506040101 39 360 7.0 15.0 0.00 0.11 0.11 64 1018.8
20260506035603 39 360 8.0 15.0 0.00 0.11 0.11 64 1018.9
20260506035120 39 360 11.0 15.0 0.00 0.11 0.11 64 1018.8
20260506034525 39 360 9.0 15.0 0.00 0.11 0.11 63 1018.6
20260506034027 39 360 9.0 18.0 0.00 0.11 0.11 63 1018.5
20260506033608 39 360 10.0 18.0 0.00 0.11 0.11 63 1018.4
20260506033049 39 360 11.0 18.0 0.00 0.11 0.11 64 1018.3
20260506032550 39 360 8.0 18.0 0.00 0.11 0.11 64 1018.2
20260506032032 39 360 9.0 19.0 0.00 0.11 0.11 64 1018.1
20260506031555 39 360 13.0 19.0 0.00 0.11 0.11 65 1018.0
20260506031038 39 360 14.0 20.0 0.00 0.11 0.11 65 1017.8
20260506030059 38 360 8.0 16.0 0.00 0.11 0.11 67 1017.7
20260506025541 38 360 9.0 17.0 0.00 0.11 0.11 67 1017.7
20260506025023 38 360 11.0 20.0 0.00 0.11 0.11 67 1017.6
20260506024527 38 360 14.0 20.0 0.00 0.11 0.11 67 1017.4
20260506024029 38 360 14.0 23.0 0.00 0.11 0.11 68 1017.3
20260506023611 38 360 14.0 23.0 0.00 0.11 0.11 68 1017.2
20260506023052 38 360 10.0 20.0 0.00 0.11 0.11 68 1017.1
20260506022554 38 360 16.0 20.0 0.00 0.11 0.11 69 1016.9
20260506022036 38 360 14.0 20.0 0.00 0.11 0.11 69 1016.8
20260506021539 38 360 10.0 18.0 0.00 0.11 0.11 69 1016.8
20260506021101 38 360 12.0 20.0 0.00 0.11 0.11 69 1016.8
20260506020543 38 360 15.0 21.0 0.00 0.11 0.11 70 1016.6
20260506020024 38 360 13.0 22.0 0.00 0.11 0.11 70 1016.5
20260506015607 38 360 13.0 25.0 0.00 0.11 0.11 69 1016.4
20260506015028 38 360 16.0 26.0 0.00 0.11 0.11 69 1016.3
20260506014531 39 360 16.0 23.0 0.00 0.11 0.11 67 1016.3
20260506014052 40 360 18.0 23.0 0.00 0.11 0.11 64 1017.1
20260506013555 41 360 12.0 21.0 0.00 0.11 0.11 60 1017.0
20260506013116 41 360 15.0 21.0 0.00 0.11 0.11 63 1017.1
20260506012536 41 360 11.0 20.0 0.00 0.11 0.11 63 1017.2
20260506011600 41 360 14.0 19.0 0.01 0.11 0.11 65 1016.5
20260506011041 41 360 13.0 19.0 0.01 0.11 0.11 65 1016.3
20260506010542 41 360 10.0 21.0 0.01 0.11 0.11 64 1016.2
20260506010028 41 360 15.0 21.0 0.01 0.11 0.11 63 1016.1
20260506005550 41 360 10.0 19.0 0.01 0.11 0.11 61 1016.0
20260506005052 41 360 11.0 19.0 0.01 0.11 0.11 61 1016.0
20260506004534 41 360 10.0 18.0 0.01 0.11 0.11 65 1016.1
20260506003535 41 360 12.0 19.0 0.01 0.11 0.11 68 1016.1
20260506003034 40 360 11.0 18.0 0.01 0.11 0.11 68 1016.1
20260506002557 40 360 13.0 18.0 0.01 0.11 0.11 68 1016.1
20260506001540 40 360 12.0 18.0 0.01 0.11 0.11 68 1016.1
20260506000559 40 360 7.0 16.0 0.00 0.10 0.10 68 1016.1
20260506000120 40 360 10.0 16.0 0.00 0.10 0.10 68 1016.1
20260505235540 40 360 9.0 14.0 0.00 0.10 0.10 68 1016.2
20260505235025 40 360 7.0 14.0 0.00 0.10 0.10 69 1016.2
20260505234528 39 360 6.0 13.0 0.00 0.10 0.10 71 1016.2
20260505234111 39 360 5.0 12.0 0.00 0.10 0.10 72 1016.2
20260505233027 39 360 7.0 19.0 0.00 0.10 0.10 71 1016.1
20260505232534 40 360 10.0 19.0 0.00 0.10 0.10 69 1016.1
20260505232037 40 360 10.0 18.0 0.00 0.10 0.10 66 1016.1
20260505231538 41 360 7.0 17.0 0.00 0.10 0.10 62 1016.0
20260505231042 41 360 7.0 15.0 0.00 0.10 0.10 57 1015.9
20260505230623 41 360 5.0 12.0 0.00 0.10 0.10 58 1015.7
20260505230024 41 360 7.0 17.0 0.00 0.10 0.10 59 1015.7
20260505225527 42 360 7.0 21.0 0.00 0.10 0.10 57 1015.6
20260505225050 42 360 13.0 22.0 0.00 0.10 0.10 56 1015.6
20260505224531 43 360 10.0 27.0 0.00 0.10 0.10 55 1015.5
20260505224035 44 360 12.0 27.0 0.00 0.10 0.10 52 1015.2
20260505223536 45 360 10.0 19.0 0.00 0.10 0.10 47 1014.9
20260505223058 45 360 5.0 18.0 0.00 0.10 0.10 45 1014.8
20260505222600 45 360 12.0 18.0 0.00 0.10 0.10 43 1014.7
20260505222042 45 360 7.0 16.0 0.00 0.10 0.10 44 1014.5
20260505221524 45 360 10.0 25.0 0.00 0.10 0.10 46 1014.5
20260505221048 45 360 14.0 25.0 0.00 0.10 0.10 45 1014.5
20260505220530 45 360 7.0 19.0 0.00 0.10 0.10 45 1014.4
20260505220052 45 360 4.0 19.0 0.00 0.10 0.10 46 1014.6
20260505215554 45 360 9.0 19.0 0.00 0.10 0.10 42 1014.4
20260505215056 45 360 7.0 18.0 0.00 0.10 0.10 42 1014.4
20260505214541 45 360 8.0 21.0 0.00 0.10 0.10 42 1014.4
20260505214024 46 360 13.0 21.0 0.00 0.10 0.10 42 1014.2
20260505213546 46 360 15.0 25.0 0.00 0.10 0.10 41 1014.9
20260505213046 46 360 11.0 25.0 0.00 0.10 0.10 40 1014.8
20260505212527 46 360 8.0 20.0 0.00 0.10 0.10 40 1014.7
20260505212030 46 360 11.0 20.0 0.00 0.10 0.10 41 1014.8
20260505211533 46 360 7.0 20.0 0.00 0.10 0.10 41 1014.6
20260505211036 46 360 8.0 20.0 0.00 0.10 0.10 43 1014.5
20260505210539 46 360 13.0 17.0 0.00 0.10 0.10 43 1014.5
20260505210042 46 360 2.0 21.0 0.00 0.10 0.10 43 1014.5
20260505205524 46 360 14.0 21.0 0.00 0.10 0.10 42 1014.8
20260505205047 47 360 6.0 16.0 0.00 0.10 0.10 41 1014.6
20260505204528 47 360 8.0 16.0 0.00 0.10 0.10 40 1014.5
20260505204051 47 360 2.0 15.0 0.00 0.10 0.10 38 1014.4
20260505203552 48 360 8.0 15.0 0.00 0.10 0.10 38 1014.4
20260505203053 47 360 5.0 11.0 0.00 0.10 0.10 39 1014.4
20260505202615 47 360 4.0 14.0 0.00 0.10 0.10 38 1014.4
20260505202036 48 360 10.0 14.0 0.00 0.10 0.10 39 1014.4
20260505201041 47 360 4.0 15.0 0.00 0.10 0.10 40 1014.3
20260505200623 48 360 10.0 15.0 0.00 0.10 0.10 39 1014.5
20260505200043 48 360 10.0 12.0 0.00 0.10 0.10 40 1014.4
20260505195525 48 360 8.0 16.0 0.00 0.10 0.10 39 1014.4
20260505195107 47 360 11.0 16.0 0.00 0.10 0.10 40 1014.4
20260505194527 47 360 8.0 16.0 0.00 0.10 0.10 39 1014.4
20260505194031 48 360 12.0 17.0 0.00 0.10 0.10 39 1014.5
20260505193553 48 360 12.0 20.0 0.00 0.10 0.10 41 1014.6
20260505193039 48 360 9.0 20.0 0.00 0.10 0.10 41 1014.6
20260505192541 48 360 10.0 20.0 0.00 0.10 0.10 39 1014.6
20260505192103 48 360 13.0 20.0 0.00 0.10 0.10 39 1014.5
20260505191545 49 360 8.0 17.0 0.01 0.10 0.10 38 1014.4
20260505191046 49 360 11.0 17.0 0.01 0.10 0.10 38 1014.5
20260505190527 48 360 4.0 13.0 0.01 0.10 0.10 37 1014.4
20260505190030 49 360 6.0 14.0 0.01 0.10 0.10 37 1014.6
20260505185554 48 360 8.0 14.0 0.01 0.10 0.10 37 1014.6
20260505185035 48 360 3.0 9.0 0.01 0.10 0.10 36 1014.6
20260505184558 49 360 5.0 14.0 0.01 0.10 0.10 36 1014.6
20260505184058 49 360 4.0 17.0 0.01 0.10 0.10 36 1014.6
20260505183619 49 360 14.0 17.0 0.01 0.10 0.10 36 1014.6
20260505183101 48 360 11.0 15.0 0.01 0.10 0.10 36 1014.6
20260505182542 49 360 6.0 15.0 0.01 0.10 0.10 36 1014.6
20260505182044 48 360 5.0 13.0 0.01 0.10 0.10 36 1014.6
20260505181525 48 360 10.0 17.0 0.00 0.09 0.09 36 1014.6
20260505181028 47 360 6.0 17.0 0.00 0.09 0.09 37 1014.7
20260505180529 48 360 7.0 16.0 0.00 0.09 0.09 36 1014.8
20260505180032 48 360 5.0 17.0 0.00 0.09 0.09 36 1014.8
20260505175615 48 360 7.0 17.0 0.00 0.09 0.09 36 1014.8
20260505175056 48 360 7.0 13.0 0.00 0.09 0.09 37 1014.8
20260505174558 47 360 7.0 14.0 0.00 0.09 0.09 37 1014.8
20260505174039 48 360 6.0 14.0 0.00 0.09 0.09 35 1014.9
20260505173600 48 360 10.0 14.0 0.00 0.09 0.09 35 1014.9
20260505173103 49 360 1.0 16.0 0.00 0.09 0.09 36 1014.8
20260505172524 49 360 7.0 16.0 0.00 0.09 0.09 36 1014.9
20260505172031 49 360 6.0 17.0 0.00 0.09 0.09 36 1014.9
20260505171554 49 360 12.0 17.0 0.00 0.09 0.09 36 1014.9
20260505171036 49 360 6.0 15.0 0.00 0.09 0.09 36 1014.8
20260505170557 49 360 9.0 15.0 0.00 0.09 0.09 38 1014.9
20260505170055 47 360 4.0 15.0 0.00 0.09 0.09 38 1014.9
20260505165537 47 360 8.0 15.0 0.00 0.09 0.09 38 1014.9
20260505165100 47 360 5.0 13.0 0.00 0.09 0.09 40 1014.9
20260505164602 47 360 6.0 10.0 0.00 0.09 0.09 39 1015.0
20260505163524 46 360 10.0 13.0 0.01 0.09 0.09 39 1015.1
20260505163107 46 360 5.0 11.0 0.01 0.09 0.09 41 1015.0
20260505162526 47 360 8.0 12.0 0.01 0.09 0.09 40 1015.1
20260505162028 47 360 6.0 12.0 0.01 0.09 0.09 40 1015.1
20260505161032 47 360 8.0 12.0 0.01 0.09 0.09 41 1015.2
20260505160534 46 360 8.0 12.0 0.01 0.09 0.09 39 1015.2
20260505160117 45 360 7.0 13.0 0.01 0.09 0.09 40 1015.2
20260505153036 45 360 8.0 14.0 0.00 0.08 0.08 42 1015.4
20260505152600 46 360 7.0 14.0 0.00 0.08 0.08 44 1015.3
20260505152041 46 360 9.0 14.0 0.00 0.08 0.08 45 1015.3
20260505151120 46 360 9.0 14.0 0.00 0.08 0.08 45 1015.2
20260505150524 45 360 5.0 12.0 0.00 0.08 0.08 49 1015.2
20260505140609 42 360 0.0 2.0 0.01 0.08 0.08 72 1016.2